Time,TemperatureF,DewpointF,PressureIn,WindDirection,WindDirectionDegrees,WindSpeedMPH,WindSpeedGustMPH,Humidity,HourlyPrecipIn,Conditions,Clouds,dailyrainin,SolarRadiationWatts/m^2,SoftwareType,DateUTC
2013-01-14 16:32:00,42.0,26.0,-100.00,South,188,6.0,20.0,53,-99.99,,,4.55,7.000000,,2013-01-15 01:32:00,
2013-01-14 16:42:00,42.0,26.0,-100.00,South,188,6.0,20.0,53,-99.99,,,4.55,7.000000,,2013-01-15 01:42:00,
2013-01-14 16:52:00,42.0,26.0,-100.00,South,188,6.0,20.0,53,-99.99,,,4.55,7.000000,,2013-01-15 01:52:00,
2013-01-14 17:22:00,42.0,27.0,-100.00,SSW,199,4.0,14.0,54,0.08,,,4.63,0.000000,,2013-01-15 02:22:00,
2013-01-14 17:32:00,42.0,27.0,-100.00,SSW,199,4.0,14.0,54,0.08,,,4.63,0.000000,,2013-01-15 02:32:00,
2013-01-14 17:42:00,42.0,27.0,-100.00,SSW,199,4.0,14.0,54,0.08,,,4.63,0.000000,,2013-01-15 02:42:00,
2013-01-14 17:52:00,42.0,27.0,-100.00,SSW,199,4.0,14.0,54,0.08,,,4.63,0.000000,,2013-01-15 02:52:00,
2013-01-14 18:22:00,40.0,24.0,-100.00,SSW,209,4.0,10.0,53,0.04,,,4.66,0.000000,,2013-01-15 03:22:00,
2013-01-14 18:33:00,40.0,24.0,-100.00,SSW,209,4.0,10.0,53,0.04,,,4.66,0.000000,,2013-01-15 03:33:00,
2013-01-14 18:42:00,40.0,24.0,-100.00,SSW,209,4.0,10.0,53,0.04,,,4.66,0.000000,,2013-01-15 03:42:00,
2013-01-14 18:52:00,40.0,24.0,-100.00,SSW,209,4.0,10.0,53,0.04,,,4.66,0.000000,,2013-01-15 03:52:00,
2013-01-14 19:22:00,42.0,24.0,-100.00,SW,227,5.0,12.0,49,0.03,,,4.69,0.000000,,2013-01-15 04:22:00,
2013-01-14 19:32:00,42.0,24.0,-100.00,SW,227,5.0,12.0,49,0.03,,,4.69,0.000000,,2013-01-15 04:32:00,
2013-01-14 19:42:00,42.0,24.0,-100.00,SW,227,5.0,12.0,49,0.03,,,4.69,0.000000,,2013-01-15 04:42:00,
2013-01-14 19:52:00,42.0,24.0,-100.00,SW,227,5.0,12.0,49,0.03,,,4.69,0.000000,,2013-01-15 04:52:00,
2013-01-14 20:22:00,40.0,23.0,-100.00,SW,217,2.0,6.0,51,0.03,,,4.70,0.000000,,2013-01-15 05:22:00,
2013-01-14 20:33:00,40.0,23.0,-100.00,SW,217,2.0,6.0,51,0.03,,,4.70,0.000000,,2013-01-15 05:33:00,
2013-01-14 20:42:00,40.0,23.0,-100.00,SW,217,2.0,6.0,51,0.03,,,4.70,0.000000,,2013-01-15 05:42:00,
2013-01-14 20:52:00,40.0,23.0,-100.00,SW,217,2.0,6.0,51,0.03,,,4.70,0.000000,,2013-01-15 05:52:00,
2013-01-14 21:22:00,41.0,21.0,-100.00,South,188,4.0,9.0,44,0.02,,,4.68,0.000000,,2013-01-15 06:22:00,
2013-01-14 21:32:00,41.0,21.0,-100.00,South,188,4.0,9.0,44,0.02,,,4.68,0.000000,,2013-01-15 06:32:00,
2013-01-14 21:42:00,41.0,21.0,-100.00,South,188,4.0,9.0,44,0.02,,,4.68,0.000000,,2013-01-15 06:42:00,
2013-01-14 21:52:00,41.0,21.0,-100.00,South,188,4.0,9.0,44,0.02,,,4.68,0.000000,,2013-01-15 06:52:00,
2013-01-14 22:22:00,41.0,22.0,-100.00,SSW,194,4.0,10.0,46,0.02,,,4.36,0.000000,,2013-01-15 07:22:00,
2013-01-14 22:32:00,41.0,22.0,-100.00,SSW,194,4.0,10.0,46,0.02,,,4.36,0.000000,,2013-01-15 07:32:00,
2013-01-14 22:42:00,41.0,22.0,-100.00,SSW,194,4.0,10.0,46,0.02,,,4.36,0.000000,,2013-01-15 07:42:00,
2013-01-14 22:52:00,41.0,22.0,-100.00,SSW,194,4.0,10.0,46,0.02,,,4.36,0.000000,,2013-01-15 07:52:00,
2013-01-14 23:22:00,41.0,23.0,-100.00,South,191,4.0,10.0,48,0.03,,,3.94,0.000000,,2013-01-15 08:22:00,
2013-01-14 23:32:00,41.0,23.0,-100.00,South,191,4.0,10.0,48,0.03,,,3.94,0.000000,,2013-01-15 08:32:00,
2013-01-14 23:42:00,41.0,23.0,-100.00,South,191,4.0,10.0,48,0.03,,,3.94,0.000000,,2013-01-15 08:42:00,
2013-01-14 23:52:00,41.0,23.0,-100.00,South,191,4.0,10.0,48,0.03,,,3.94,0.000000,,2013-01-15 08:52:00,